[[{"header":{"parameterUnit":"m.s-1","parameterCategory":1,"la1":30.2991,"la2":30.254,"lo1":-89.0895,"lo2":-89.0444,"dy":0.0017,"dx":0.0017,"nx":28,"ny":28,"refTime":"2025-07-23T09:00:00:Z","depth":0,"parameterNumber":2,"parameterNumberName":"U-component_of_WINDS"},"data":[0,0,0,0,0,0,0,0,0,0,0,0,0,0,0,0,0,0,0,0,0,0,0,0,0,0,0,0,0,0,0,0,0,0,0,0,0,0,0,0,0,0,0,0,0,0,0,0,0,0,0,0,0,0,0,0,0,0,-2.5562,-2.5562,0,-2.5584,-2.5585,-2.5585,-2.554,-2.5539,-2.5537,-2.5536,-2.5563,-2.5565,-2.5567,0,0,0,0,0,0,0,0,0,0,0,0,0,-2.5483,-2.5485,-2.5562,-2.5562,-2.5562,-2.5584,-2.5585,-2.5585,-2.554,-2.5539,-2.5537,-2.5535,-2.5562,-2.5565,-2.5567,0,0,0,0,0,0,0,0,0,0,0,0,0,-2.5513,-2.5485,-2.5561,-2.5542,-2.5541,-2.5584,-2.5585,-2.5585,-2.5541,-2.5539,-2.5536,-2.5534,-2.5561,-2.5564,-2.5567,-2.5632,0,0,-2.5577,-2.5578,0,0,0,0,0,0,0,0,-2.5511,-2.5516,-2.5545,-2.5544,-2.5542,-2.5557,-2.5567,-2.5601,-2.5541,-2.5541,-2.5536,-2.5533,-2.5563,-2.5566,-2.5575,-2.5633,-2.5634,-2.5577,-2.5579,-2.5581,-2.5582,0,0,0,0,0,0,0,-2.5509,-2.5515,-2.5571,-2.5545,-2.5544,-2.5534,-2.5536,-2.5573,-2.5564,-2.5541,-2.5538,-2.5541,-2.5562,-2.5572,-2.5575,-2.5634,-2.5577,-2.558,-2.5582,-2.5583,-2.5747,-2.5749,0,0,0,0,0,0,-2.5509,-2.5513,-2.557,-2.5571,-2.5521,-2.5537,-2.5539,-2.5555,-2.5564,-2.5563,-2.5543,-2.5539,-2.5568,-2.5572,-2.5576,-2.5652,-2.5581,-2.5584,-2.5585,-2.5745,-2.5748,-2.575,0,0,0,0,0,0,-2.5508,-2.5515,-2.5569,-2.5541,-2.5548,-2.5541,-2.5559,-2.5556,-2.5566,-2.5565,-2.5564,-2.5555,-2.5566,-2.5572,-2.5618,-2.5652,-2.5585,-2.5588,-2.5742,-2.5745,-2.5749,-2.5804,0,0,0,0,0,0,-2.5505,-2.5514,-2.5537,-2.5542,-2.5549,-2.5609,-2.5561,-2.5558,-2.5572,-2.5567,-2.5576,-2.5575,-2.5565,-2.5614,-2.5621,-2.5655,-2.559,-2.5739,-2.5743,-2.5748,-2.5799,-2.5809,-2.5817,0,0,0,0,0,-2.5503,-2.5553,-2.5539,-2.5546,-2.5578,-2.5611,-2.5615,-2.5601,-2.5575,-2.5598,-2.5598,-2.5575,-2.5648,-2.5619,-2.5627,-2.5662,-2.5736,-2.5742,-2.5747,-2.5795,-2.5807,-2.5817,0,0,0,0,0,0,-2.5553,-2.5553,-2.5537,-2.559,-2.5601,-2.5604,-2.5633,-2.5615,-2.5634,-2.5629,-2.5612,-2.5615,-2.5664,-2.5668,-2.5636,-2.5726,-2.5688,-2.5695,-2.5721,-2.5732,-2.5741,-2.5739,-2.5593,0,0,0,0,0,-2.557,-2.5596,-2.5595,-2.5641,-2.5648,-2.564,-2.5654,-2.5642,-2.5653,-2.5658,-2.566,-2.5673,-2.5699,-2.5716,-2.574,-2.58,-2.5801,-2.5829,-2.5838,-2.5845,-2.5852,-2.5884,-2.5896,-2.5768,-2.5768,-2.5768,0,0,-2.5605,-2.5609,-2.5626,-2.5652,-2.5658,-2.5687,-2.5644,-2.5676,-2.5697,-2.5663,-2.5706,-2.5709,-2.5722,-2.5776,-2.58,-2.5781,-2.5888,-2.5852,-2.5859,-2.5861,-2.5891,-2.5903,-2.5914,-2.5772,-2.5771,-2.5771,0,0,-2.5684,-2.5689,-2.5728,-2.5736,-2.5747,-2.5742,-2.5752,-2.5758,-2.5758,-2.5801,-2.5776,-2.5803,-2.5847,-2.5857,-2.5869,-2.5954,-2.5933,-2.5962,-2.601,-2.6042,-2.6052,-2.6061,-2.6091,-2.6102,-2.5969,-2.5969,-2.5969,0,-2.5727,-2.5767,-2.5751,-2.5784,-2.5797,-2.5767,-2.5808,-2.5817,-2.5836,-2.5845,-2.5824,-2.5879,-2.5886,-2.5942,-2.5963,-2.5973,-2.5984,-2.596,-2.6052,-2.606,-2.6068,-2.6097,-2.6108,-2.5972,-2.5972,-2.5971,-2.5971,0,-2.5819,-2.5848,-2.5879,-2.5896,-2.5913,-2.5949,-2.594,-2.5959,-2.5947,-2.5944,-2.599,-2.5997,-2.6022,-2.6034,-2.6023,-2.6089,-2.6077,-2.6054,-2.6015,-2.6084,-2.6111,-2.6121,-2.5977,-2.5976,-2.5975,-2.5974,0,0,-2.5928,-2.5937,-2.5949,-2.5957,-2.5968,-2.599,-2.6027,-2.605,-2.6066,-2.6081,-2.6112,-2.6151,-2.613,-2.6143,-2.6133,-2.6161,-2.6228,-2.6134,-2.6135,-2.6151,-2.6301,-2.6317,-2.633,-2.6215,-2.6217,-2.6219,-2.63,0,-2.6005,-2.6066,-2.6054,-2.6114,-2.6141,-2.6114,-2.6146,-2.6157,-2.6157,-2.618,-2.618,-2.6208,-2.6178,-2.6186,-2.6213,-2.6214,-2.6257,-2.6208,-2.6244,-2.6245,-2.624,-2.6344,-2.6361,-2.6436,-2.631,-2.6312,-2.6313,0,-2.6103,-2.6121,-2.6183,-2.619,-2.6201,-2.623,-2.625,-2.6274,-2.6286,-2.6284,-2.6299,-2.6284,-2.6322,-2.6284,-2.6337,-2.6303,-2.6318,-2.6321,-2.6323,-2.6325,-2.6282,-2.6347,-2.646,-2.6471,-2.6329,-2.6328,-2.6327,0,-2.6175,-2.6215,-2.6257,-2.6265,-2.6275,-2.6296,-2.6301,-2.6312,-2.6327,-2.6346,-2.6356,-2.638,-2.6392,-2.6412,-2.6404,-2.6378,-2.6459,-2.642,-2.6458,-2.6458,-2.6475,-2.6473,-2.659,-2.6487,-2.6486,-2.6486,-2.6486,0,-2.6262,-2.6301,-2.629,-2.6316,-2.6359,-2.6346,-2.639,-2.6393,-2.6403,-2.643,-2.6409,-2.6436,-2.6425,-2.6451,-2.6446,-2.649,-2.6496,-2.6496,-2.6494,-2.6497,-2.6497,-2.6505,-2.6499,-2.6489,-2.6488,-2.6488,-2.6487,0,-2.6349,-2.6343,-2.6387,-2.6393,-2.6396,-2.6428,-2.6433,-2.6458,-2.6457,-2.6492,-2.6499,-2.6497,-2.6527,-2.6522,-2.6555,-2.6552,-2.6607,-2.6599,-2.6602,-2.6599,-2.6637,-2.6633,-2.6762,-2.6778,-2.6666,-2.6667,-2.6668,0,-2.6403,-2.6433,-2.6442,-2.6458,-2.6465,-2.6491,-2.6507,-2.6496,-2.6513,-2.653,-2.6554,-2.6582,-2.6603,-2.6652,-2.6654,-2.668,-2.6672,-2.6716,-2.6676,-2.6678,-2.6672,-2.6669,-2.6672,-2.6723,-2.6724,-2.6725,-2.6726,0,-2.6501,-2.6497,-2.6519,-2.6541,-2.6559,-2.6576,-2.6591,-2.6606,-2.6597,-2.6617,-2.6646,-2.6663,-2.6697,-2.6725,-2.675,-2.6757,-2.674,-2.6739,-2.6749,-2.6751,-2.6751,-2.6751,-2.6622,-2.6736,-2.6735,-2.6734,-2.6733,-2.6733,-2.6573,-2.6598,-2.6608,-2.6634,-2.6644,-2.6659,-2.6682,-2.6684,-2.6708,-2.6734,-2.6727,-2.6761,-2.6775,-2.6805,-2.6816,-2.6843,-2.6827,-2.6841,-2.6845,-2.6848,-2.6852,-2.6749,-2.6848,-2.6847,-2.6847,-2.6847,-2.6847,0,-2.6669,-2.6674,-2.6698,-2.6719,-2.674,-2.6723,-2.6739,-2.6757,-2.6787,-2.6801,-2.6822,-2.6857,-2.6885,-2.689,-2.6916,-2.6937,-2.6931,-2.6945,-2.6942,-2.6944,-2.6865,-2.6854,-2.695,-2.695,-2.695,-2.695,-2.695,-2.695,-2.672,-2.6762,-2.6759,-2.6806,-2.6812,-2.6844,-2.6854,-2.6868,-2.6879,-2.6919,-2.6941,-2.6944,-2.6955,-2.6982,-2.7008,-2.7009,-2.7019,-2.7036,-2.7034,-2.696,-2.695,-2.694,-2.6928,-2.7039,-2.7039,-2.711,-2.7111,-2.7111]},{"header":{"parameterUnit":"m.s-1","parameterCategory":1,"la1":30.2991,"la2":30.254,"lo1":-89.0895,"lo2":-89.0444,"dy":0.0017,"dx":0.0017,"nx":28,"ny":28,"refTime":"2025-07-23T09:00:00:Z","depth":0,"parameterNumber":3,"parameterNumberName":"V-component_of_WINDS"},"data":[0,0,0,0,0,0,0,0,0,0,0,0,0,0,0,0,0,0,0,0,0,0,0,0,0,0,0,0,0,0,0,0,0,0,0,0,0,0,0,0,0,0,0,0,0,0,0,0,0,0,0,0,0,0,0,0,0,0,-2.0006,-2.0006,0,-1.9984,-1.9984,-1.9983,-1.9944,-1.9943,-1.9942,-1.9941,-1.9917,-1.9917,-1.9917,0,0,0,0,0,0,0,0,0,0,0,0,0,-2.0012,-2.0012,-2.0006,-2.0006,-2.0006,-1.9984,-1.9984,-1.9983,-1.9944,-1.9943,-1.9942,-1.9941,-1.9917,-1.9917,-1.9917,0,0,0,0,0,0,0,0,0,0,0,0,0,-2.0001,-2.0012,-2.0006,-1.9983,-1.9981,-1.9984,-1.9984,-1.9983,-1.9944,-1.9943,-1.9942,-1.9941,-1.9917,-1.9917,-1.9917,-1.994,0,0,-1.9917,-1.9917,0,0,0,0,0,0,0,0,-2.0002,-2.0001,-1.9987,-1.9985,-1.9982,-1.9965,-1.9976,-1.9969,-1.9944,-1.9958,-1.9941,-1.994,-1.9934,-1.9932,-1.993,-1.9939,-1.9938,-1.9917,-1.9917,-1.9917,-1.9917,0,0,0,0,0,0,0,-2.0003,-2.0002,-1.9997,-1.9987,-1.9984,-1.9973,-1.997,-1.9975,-1.9952,-1.9957,-1.9954,-1.9952,-1.9932,-1.9931,-1.993,-1.9937,-1.9917,-1.9917,-1.9917,-1.9917,-1.996,-1.9961,0,0,0,0,0,0,-2.0007,-2.0003,-1.9998,-1.9997,-1.999,-1.9974,-1.9971,-1.9972,-1.9952,-1.9948,-1.9953,-1.995,-1.9931,-1.993,-1.9929,-1.9952,-1.9917,-1.9917,-1.9917,-1.9959,-1.996,-1.9961,0,0,0,0,0,0,-2.0007,-2.0007,-1.9999,-1.9999,-1.9997,-1.9975,-1.9977,-1.9972,-1.9971,-1.9949,-1.9945,-1.9955,-1.993,-1.9928,-1.9937,-1.9951,-1.9917,-1.9917,-1.9957,-1.9959,-1.9961,-2.0002,0,0,0,0,0,0,-2.0008,-2.0007,-2.0017,-1.9999,-1.9997,-2.0009,-1.9978,-1.9973,-1.9971,-1.9967,-1.9951,-1.9947,-1.9929,-1.9937,-1.9937,-1.9951,-1.9917,-1.9956,-1.9958,-1.996,-1.9999,-2.0004,-2.0009,0,0,0,0,0,-2.0008,-2.003,-2.0018,-2.0017,-2.0009,-2.001,-2.0008,-1.9988,-1.9972,-1.9981,-1.9967,-1.9947,-1.995,-1.9938,-1.9938,-1.9952,-1.9955,-1.9958,-1.996,-1.9997,-2.0003,-2.0009,0,0,0,0,0,0,-2.0049,-2.0027,-2.0014,-2.003,-2.0022,-2.0003,-2.0014,-1.9996,-1.9992,-1.9989,-1.9963,-1.996,-1.9971,-1.9962,-1.995,-1.9971,-1.9949,-1.9952,-1.9977,-1.9983,-1.9988,-1.999,-1.9917,0,0,0,0,0,-2.006,-2.0064,-2.0044,-2.006,-2.0057,-2.0036,-2.0036,-2.0021,-2.0011,-2.0007,-1.9994,-1.9985,-1.9983,-1.9983,-1.998,-1.9997,-1.9992,-2.0006,-2.0011,-2.0016,-2.0018,-2.0024,-2.003,-1.9969,-1.9969,-1.9969,0,0,-2.0083,-2.0072,-2.0075,-2.0068,-2.0061,-2.0063,-2.0034,-2.0039,-2.004,-2.0008,-2.0015,-2.0004,-1.9992,-2.0004,-2.0009,-1.9997,-2.0033,-2.0019,-2.0023,-2.0023,-2.0027,-2.0033,-2.0038,-1.9971,-1.9971,-1.997,0,0,-2.0127,-2.0119,-2.0131,-2.0123,-2.0111,-2.0097,-2.0099,-2.0082,-2.0074,-2.0081,-2.0056,-2.0057,-2.0055,-2.0047,-2.0042,-2.0079,-2.006,-2.0079,-2.0106,-2.0112,-2.0117,-2.0121,-2.0133,-2.0137,-2.0082,-2.0082,-2.0082,0,-2.0156,-2.0161,-2.0139,-2.0145,-2.0142,-2.0112,-2.0123,-2.0117,-2.0105,-2.0102,-2.0089,-2.0085,-2.0075,-2.0084,-2.0092,-2.009,-2.0091,-2.0081,-2.0118,-2.0122,-2.0125,-2.0136,-2.0141,-2.0084,-2.0084,-2.0084,-2.0083,0,-2.0197,-2.02,-2.0211,-2.02,-2.0198,-2.0207,-2.0184,-2.0185,-2.0169,-2.0155,-2.0161,-2.0147,-2.014,-2.0141,-2.0127,-2.0147,-2.014,-2.0123,-2.01,-2.0134,-2.0143,-2.0148,-2.0087,-2.0086,-2.0086,-2.0085,0,0,-2.0267,-2.0242,-2.0246,-2.024,-2.0224,-2.0225,-2.0231,-2.0225,-2.0225,-2.0216,-2.022,-2.0218,-2.0201,-2.0196,-2.018,-2.0185,-2.0213,-2.0167,-2.0166,-2.0175,-2.0233,-2.0245,-2.025,-2.02,-2.0201,-2.0202,-2.0233,0,-2.0306,-2.0316,-2.0295,-2.0309,-2.0311,-2.0282,-2.0287,-2.0277,-2.0264,-2.0262,-2.0247,-2.0245,-2.0224,-2.0221,-2.0225,-2.0209,-2.0224,-2.0206,-2.0202,-2.0202,-2.0205,-2.0256,-2.0269,-2.03,-2.0237,-2.0238,-2.0238,0,-2.0353,-2.0347,-2.0361,-2.0342,-2.0342,-2.0347,-2.0338,-2.0337,-2.0324,-2.0314,-2.0307,-2.0288,-2.029,-2.0268,-2.027,-2.0259,-2.0255,-2.0247,-2.0247,-2.0246,-2.0222,-2.0254,-2.0309,-2.0313,-2.0244,-2.0244,-2.0243,0,-2.04,-2.0396,-2.0403,-2.0399,-2.0377,-2.0381,-2.0372,-2.0358,-2.0354,-2.0346,-2.0343,-2.0335,-2.0331,-2.0324,-2.0302,-2.0289,-2.0306,-2.0283,-2.0297,-2.0297,-2.0302,-2.0301,-2.0356,-2.0301,-2.0301,-2.0301,-2.0301,0,-2.0446,-2.0455,-2.0424,-2.0429,-2.0438,-2.0413,-2.0423,-2.041,-2.0398,-2.0398,-2.0373,-2.0373,-2.0344,-2.0341,-2.0324,-2.0327,-2.0326,-2.0316,-2.0311,-2.0318,-2.0319,-2.0315,-2.0312,-2.0302,-2.0302,-2.0301,-2.0301,0,-2.0501,-2.048,-2.0486,-2.0465,-2.0459,-2.0467,-2.0448,-2.045,-2.0435,-2.0435,-2.0434,-2.041,-2.0404,-2.0382,-2.0371,-2.0359,-2.0368,-2.0359,-2.0373,-2.0369,-2.0384,-2.0382,-2.0437,-2.0442,-2.0385,-2.0385,-2.0386,0,-2.053,-2.0537,-2.0516,-2.0514,-2.0506,-2.0505,-2.0501,-2.0476,-2.0473,-2.0457,-2.0461,-2.0454,-2.0447,-2.0439,-2.042,-2.0411,-2.0401,-2.042,-2.0399,-2.0405,-2.0399,-2.0399,-2.0398,-2.0425,-2.0425,-2.0426,-2.0427,0,-2.0585,-2.0574,-2.057,-2.0562,-2.0558,-2.055,-2.0541,-2.0541,-2.0513,-2.051,-2.0505,-2.0499,-2.0488,-2.048,-2.0468,-2.0456,-2.0436,-2.0433,-2.0436,-2.0442,-2.0449,-2.0444,-2.0384,-2.0432,-2.0432,-2.0431,-2.0431,-2.0431,-2.0627,-2.0631,-2.0616,-2.0612,-2.0602,-2.0593,-2.0594,-2.0578,-2.0573,-2.0562,-2.0548,-2.0543,-2.0527,-2.0509,-2.0499,-2.0494,-2.0483,-2.0487,-2.0488,-2.0489,-2.0491,-2.0451,-2.0492,-2.0491,-2.0491,-2.0491,-2.0491,0,-2.0679,-2.0668,-2.0664,-2.0651,-2.0647,-2.0629,-2.0617,-2.0614,-2.0611,-2.0599,-2.0592,-2.0584,-2.0576,-2.0555,-2.0545,-2.0545,-2.0535,-2.0543,-2.0542,-2.0539,-2.0503,-2.0501,-2.0551,-2.0551,-2.0551,-2.0551,-2.0551,-2.0551,-2.0705,-2.071,-2.0697,-2.0696,-2.0684,-2.068,-2.0675,-2.0666,-2.0655,-2.0648,-2.0642,-2.0628,-2.0611,-2.0599,-2.059,-2.0584,-2.058,-2.0591,-2.0582,-2.0548,-2.0542,-2.0537,-2.0535,-2.0591,-2.0591,-2.0618,-2.0619,-2.0619]}]]